Location: Newark
(41.6500°N, 71.4833°W)
Time: 10:39:09
(UTC+00:00)

Tiros 1 - Pass Details

Date: 27 January 2020
Orbit: 631 x 664 km, 48.4° (Epoch: 25 February)

Event Time Altitude Azimuth Distance (km) Brightness Sun altitude
Rises 23:29:37 0° 290° (WNW) 2,977 11.6 -17.8°
Reaches altitude 10° 23:32:22 10° 276° (W) 2,068 10.9 -18.3°
Maximum altitude 23:36:03 23° 225° (SW) 1,412 9.5 -19.0°
Drops below altitude 10° 23:39:45 10° 174° (S) 2,069 9.8 -19.6°
Sets 23:42:30 0° 159° (SSE) 2,979 10.4 -20.1°
